Year,Month,Day,Hour,Minute,Value (Times are PST for temperature in C)
2007,06,16,09,38,15.70
2007,06,16,09,39,15.70
2007,06,16,09,40,15.70
2007,06,16,09,41,15.70
2007,06,16,09,42,15.70
2007,06,16,09,43,15.70
2007,06,16,09,44,15.70
2007,06,16,09,45,15.70
2007,06,16,09,46,15.70
2007,06,16,09,47,15.60
2007,06,16,09,48,15.60
2007,06,16,09,49,15.60
2007,06,16,09,50,15.60
2007,06,16,09,51,15.70
2007,06,16,09,52,15.70
2007,06,16,09,53,15.70
2007,06,16,09,54,15.60
2007,06,16,09,55,15.50
2007,06,16,09,56,15.50
2007,06,16,09,57,15.50
2007,06,16,09,58,15.60
2007,06,16,09,59,15.60
2007,06,16,10,00,15.70
2007,06,16,10,01,15.70
2007,06,16,10,02,15.70
2007,06,16,10,03,15.70
2007,06,16,10,04,15.70
2007,06,16,10,05,15.70
2007,06,16,10,06,15.60
2007,06,16,10,07,15.50
2007,06,16,10,08,15.50
2007,06,16,10,09,15.40
2007,06,16,10,10,15.40
2007,06,16,10,11,15.40
2007,06,16,10,12,15.50
2007,06,16,10,13,15.50
2007,06,16,10,14,15.50
2007,06,16,10,15,15.60
2007,06,16,10,16,15.50
2007,06,16,10,17,15.50
2007,06,16,10,18,15.50
2007,06,16,10,19,15.40
2007,06,16,10,20,15.40
2007,06,16,10,21,15.30
2007,06,16,10,22,15.30
2007,06,16,10,23,15.20
2007,06,16,10,24,15.10
2007,06,16,10,25,15.00
2007,06,16,10,26,15.00
2007,06,16,10,27,14.90
2007,06,16,10,28,14.70
2007,06,16,10,29,14.60
2007,06,16,10,30,14.60
2007,06,16,10,31,14.60
2007,06,16,10,32,14.60
2007,06,16,10,33,14.60
2007,06,16,10,34,14.60
2007,06,16,10,35,14.70
2007,06,16,10,36,14.80
2007,06,16,10,37,14.90
2007,06,16,10,38,15.00
2007,06,16,10,39,15.00
2007,06,16,10,40,15.00
2007,06,16,10,41,15.00
2007,06,16,10,42,15.00
2007,06,16,10,43,15.00
2007,06,16,10,44,15.00
2007,06,16,10,45,15.00
2007,06,16,10,46,15.10
2007,06,16,10,47,15.30
2007,06,16,10,48,15.50
2007,06,16,10,49,15.60
2007,06,16,10,50,15.70
2007,06,16,10,51,15.70
2007,06,16,10,52,15.70
2007,06,16,10,53,15.70
2007,06,16,10,54,15.70
2007,06,16,10,55,15.70
2007,06,16,10,56,15.70
2007,06,16,10,57,15.70
2007,06,16,10,58,15.70
2007,06,16,10,59,15.80
2007,06,16,11,00,15.80
2007,06,16,11,01,15.80
2007,06,16,11,02,15.90
2007,06,16,11,03,15.90
2007,06,16,11,04,15.90
2007,06,16,11,05,15.90
2007,06,16,11,06,15.90
2007,06,16,11,07,15.90
2007,06,16,11,08,15.80
2007,06,16,11,09,15.80
2007,06,16,11,10,15.80
2007,06,16,11,11,15.80
2007,06,16,11,12,15.80
2007,06,16,11,13,15.80
2007,06,16,11,14,15.80
2007,06,16,11,15,15.80
2007,06,16,11,16,15.80
2007,06,16,11,17,15.70
2007,06,16,11,18,15.80
2007,06,16,11,19,15.80
2007,06,16,11,20,15.80
2007,06,16,11,21,15.90
2007,06,16,11,22,15.90
2007,06,16,11,23,15.90
2007,06,16,11,24,15.90
2007,06,16,11,25,16.00
2007,06,16,11,26,16.10
2007,06,16,11,27,16.10
2007,06,16,11,28,16.20
2007,06,16,11,29,16.20
2007,06,16,11,30,16.30
2007,06,16,11,31,16.30
2007,06,16,11,32,16.30
2007,06,16,11,33,16.30
2007,06,16,11,34,16.40
2007,06,16,11,35,16.50
2007,06,16,11,36,16.60
2007,06,16,11,37,16.70
2007,06,16,11,38,16.70
2007,06,16,11,39,16.70
2007,06,16,11,40,16.70
2007,06,16,11,41,16.70
2007,06,16,11,42,16.70
2007,06,16,11,43,16.70
2007,06,16,11,44,16.70
2007,06,16,11,45,16.70
2007,06,16,11,46,16.60
2007,06,16,11,47,16.60
2007,06,16,11,48,16.60
2007,06,16,11,49,16.50
2007,06,16,11,50,16.50
2007,06,16,11,51,16.40
2007,06,16,11,52,16.30
2007,06,16,11,53,16.30
2007,06,16,11,54,16.30
2007,06,16,11,55,16.30
2007,06,16,11,56,16.30
2007,06,16,11,57,16.40
2007,06,16,11,58,16.40
2007,06,16,11,59,16.60
2007,06,16,12,00,16.70
2007,06,16,12,01,16.90
2007,06,16,12,02,17.00
2007,06,16,12,03,17.20
2007,06,16,12,04,17.40
2007,06,16,12,05,17.50
2007,06,16,12,06,17.50
2007,06,16,12,07,17.60
2007,06,16,12,08,17.50
2007,06,16,12,09,17.40
2007,06,16,12,10,17.40
2007,06,16,12,11,17.40
2007,06,16,12,12,17.50
2007,06,16,12,13,17.50
2007,06,16,12,14,17.40
2007,06,16,12,15,17.30
2007,06,16,12,16,17.10
2007,06,16,12,17,17.00
2007,06,16,12,18,16.90
2007,06,16,12,19,16.90
2007,06,16,12,20,16.90
2007,06,16,12,21,16.90
2007,06,16,12,22,17.00
2007,06,16,12,23,17.20
2007,06,16,12,24,17.20
2007,06,16,12,25,17.20
2007,06,16,12,26,17.30
2007,06,16,12,27,17.30
2007,06,16,12,28,17.30
2007,06,16,12,29,17.30
2007,06,16,12,30,17.30
2007,06,16,12,31,17.30
2007,06,16,12,32,17.40
2007,06,16,12,33,17.40
2007,06,16,12,34,17.50
2007,06,16,12,35,17.50
2007,06,16,12,36,17.60
2007,06,16,12,37,17.60
2007,06,16,12,38,17.70
2007,06,16,12,39,17.60
2007,06,16,12,40,17.60
2007,06,16,12,41,17.60
2007,06,16,12,42,17.70
2007,06,16,12,43,17.60
2007,06,16,12,44,17.60
2007,06,16,12,45,17.50
2007,06,16,12,46,17.40
2007,06,16,12,47,17.40
2007,06,16,12,48,17.50
2007,06,16,12,49,17.60
2007,06,16,12,50,17.70
2007,06,16,12,51,17.90
2007,06,16,12,52,17.90
2007,06,16,12,53,17.90
2007,06,16,12,54,17.90
2007,06,16,12,55,17.80
2007,06,16,12,56,17.80
2007,06,16,12,57,17.80
2007,06,16,12,58,17.70
2007,06,16,12,59,17.70
2007,06,16,13,00,17.70
2007,06,16,13,01,17.70
2007,06,16,13,02,17.70
2007,06,16,13,03,17.70
2007,06,16,13,04,17.70
2007,06,16,13,05,17.70
2007,06,16,13,06,17.80
2007,06,16,13,07,17.70
2007,06,16,13,08,17.70
2007,06,16,13,09,17.70
2007,06,16,13,10,17.70
2007,06,16,13,11,17.60
2007,06,16,13,12,17.60
2007,06,16,13,13,17.60
2007,06,16,13,14,17.60
2007,06,16,13,15,17.60
2007,06,16,13,16,17.60
2007,06,16,13,17,17.50
2007,06,16,13,18,17.50
2007,06,16,13,19,17.50
2007,06,16,13,20,17.60
2007,06,16,13,21,17.60
2007,06,16,13,22,17.70
2007,06,16,13,23,17.70
2007,06,16,13,24,17.60
2007,06,16,13,25,17.50
2007,06,16,13,26,17.40
2007,06,16,13,27,17.30
2007,06,16,13,28,17.10
2007,06,16,13,29,17.10
2007,06,16,13,30,17.10
2007,06,16,13,31,17.00
2007,06,16,13,32,17.10
2007,06,16,13,33,17.00
2007,06,16,13,34,16.90
2007,06,16,13,35,16.90
2007,06,16,13,36,16.80
2007,06,16,13,37,16.70
2007,06,16,13,38,16.60
2007,06,16,13,39,16.50
2007,06,16,13,40,16.50
2007,06,16,13,41,16.40
2007,06,16,13,42,16.30
2007,06,16,13,43,16.20
2007,06,16,13,44,16.20
2007,06,16,13,45,16.10
2007,06,16,13,46,16.10
2007,06,16,13,47,16.10
2007,06,16,13,48,16.10
2007,06,16,13,49,16.10
2007,06,16,13,50,16.20
2007,06,16,13,51,16.20
2007,06,16,13,52,16.20
2007,06,16,13,53,16.20
2007,06,16,13,54,16.30
2007,06,16,13,55,16.30
2007,06,16,13,56,16.40
2007,06,16,13,57,16.40
2007,06,16,13,58,16.40
2007,06,16,13,59,16.50
2007,06,16,14,00,16.60
2007,06,16,14,01,16.60
2007,06,16,14,02,16.60
2007,06,16,14,03,16.60
2007,06,16,14,04,16.70
2007,06,16,14,05,16.80
2007,06,16,14,06,16.80
2007,06,16,14,07,16.80
2007,06,16,14,08,16.90
2007,06,16,14,09,16.90
2007,06,16,14,10,16.80
2007,06,16,14,11,16.60
2007,06,16,14,12,16.50
2007,06,16,14,13,16.40
2007,06,16,14,14,16.30
2007,06,16,14,15,16.30
2007,06,16,14,16,16.20
2007,06,16,14,17,16.10
2007,06,16,14,18,16.00
2007,06,16,14,19,15.90
2007,06,16,14,20,15.80
2007,06,16,14,21,15.80
2007,06,16,14,22,15.80
2007,06,16,14,23,15.80
2007,06,16,14,24,15.90
2007,06,16,14,25,15.90
2007,06,16,14,26,15.90
2007,06,16,14,27,15.90
2007,06,16,14,28,15.80
2007,06,16,14,29,15.80
2007,06,16,14,30,15.80
2007,06,16,14,31,15.80
2007,06,16,14,32,15.80
2007,06,16,14,33,15.80
2007,06,16,14,34,15.80
2007,06,16,14,35,15.90
2007,06,16,14,36,15.90
2007,06,16,14,37,16.00
2007,06,16,14,38,16.10
2007,06,16,14,39,16.20
2007,06,16,14,40,16.20
2007,06,16,14,41,16.20
2007,06,16,14,42,16.20
2007,06,16,14,43,16.10
2007,06,16,14,44,16.20
2007,06,16,14,45,16.20
2007,06,16,14,46,16.20
2007,06,16,14,47,16.30
2007,06,16,14,48,16.30
2007,06,16,14,49,16.40
2007,06,16,14,50,16.50
2007,06,16,14,51,16.50
2007,06,16,14,52,16.60
2007,06,16,14,53,16.60
2007,06,16,14,54,16.60
2007,06,16,14,55,16.60
2007,06,16,14,56,16.50
2007,06,16,14,57,16.40
2007,06,16,14,58,16.30
2007,06,16,14,59,16.20
2007,06,16,15,00,16.10
2007,06,16,15,01,16.10
2007,06,16,15,02,16.10
2007,06,16,15,03,16.10
2007,06,16,15,04,16.10
2007,06,16,15,05,16.10
2007,06,16,15,06,16.20
2007,06,16,15,07,16.10
2007,06,16,15,08,16.10
2007,06,16,15,09,16.10
2007,06,16,15,10,16.10
2007,06,16,15,11,16.00
2007,06,16,15,12,16.00
2007,06,16,15,13,16.10
2007,06,16,15,14,16.10
2007,06,16,15,15,16.20
2007,06,16,15,16,16.30
2007,06,16,15,17,16.30
2007,06,16,15,18,16.30
2007,06,16,15,19,16.30
2007,06,16,15,20,16.30
2007,06,16,15,21,16.40
2007,06,16,15,22,16.50
2007,06,16,15,23,16.60
2007,06,16,15,24,16.70
2007,06,16,15,25,16.70
2007,06,16,15,26,16.70
2007,06,16,15,27,16.70
2007,06,16,15,28,16.70
2007,06,16,15,29,16.60
2007,06,16,15,30,16.60
2007,06,16,15,31,16.60
2007,06,16,15,32,16.60
2007,06,16,15,33,16.60
2007,06,16,15,34,16.60
2007,06,16,15,35,16.70
2007,06,16,15,36,16.60
2007,06,16,15,37,16.70
2007,06,16,15,38,16.70
2007,06,16,15,39,16.60
2007,06,16,15,40,16.60
2007,06,16,15,41,16.60
2007,06,16,15,42,16.60
2007,06,16,15,43,16.50
2007,06,16,15,44,16.50
2007,06,16,15,45,16.40
2007,06,16,15,46,16.30
2007,06,16,15,47,16.30
2007,06,16,15,48,16.30
2007,06,16,15,49,16.20
2007,06,16,15,50,16.10
2007,06,16,15,51,16.00
2007,06,16,15,52,16.00
2007,06,16,15,53,15.90
2007,06,16,15,54,16.00
2007,06,16,15,55,16.10
2007,06,16,15,56,16.20
2007,06,16,15,57,16.30
2007,06,16,15,58,16.40
2007,06,16,15,59,16.50
2007,06,16,16,00,16.50
2007,06,16,16,01,16.50
2007,06,16,16,02,16.50
2007,06,16,16,03,16.40
2007,06,16,16,04,16.40
2007,06,16,16,05,16.40
2007,06,16,16,06,16.30
2007,06,16,16,07,16.30
2007,06,16,16,08,16.20
2007,06,16,16,09,16.20
2007,06,16,16,10,16.10
2007,06,16,16,11,16.10
2007,06,16,16,12,16.20
2007,06,16,16,13,16.20
2007,06,16,16,14,16.20
2007,06,16,16,15,16.20
2007,06,16,16,16,16.10
2007,06,16,16,17,16.10
2007,06,16,16,18,16.00
2007,06,16,16,19,16.00
2007,06,16,16,20,15.90
2007,06,16,16,21,15.90
2007,06,16,16,22,15.90
2007,06,16,16,23,15.90
2007,06,16,16,24,15.90
2007,06,16,16,25,15.90
2007,06,16,16,26,15.90
2007,06,16,16,27,15.80
2007,06,16,16,28,15.80
2007,06,16,16,29,15.80
2007,06,16,16,30,15.70
2007,06,16,16,31,15.60
2007,06,16,16,32,15.60
2007,06,16,16,33,15.60
2007,06,16,16,34,15.60
2007,06,16,16,35,15.60
2007,06,16,16,36,15.50
2007,06,16,16,37,15.50
2007,06,16,16,38,15.40
2007,06,16,16,39,15.30
2007,06,16,16,40,15.30
2007,06,16,16,41,15.20
2007,06,16,16,42,15.20
2007,06,16,16,43,15.20
2007,06,16,16,44,15.20
2007,06,16,16,45,15.10
2007,06,16,16,46,15.10
2007,06,16,16,47,15.00
2007,06,16,16,48,15.00
2007,06,16,16,49,15.00
2007,06,16,16,50,15.00
2007,06,16,16,51,15.00
2007,06,16,16,52,15.00
2007,06,16,16,53,15.00
2007,06,16,16,54,15.00
2007,06,16,16,55,14.90
2007,06,16,16,56,14.80
2007,06,16,16,57,14.70
2007,06,16,16,58,14.70
2007,06,16,16,59,14.70
2007,06,16,17,00,14.70
2007,06,16,17,01,14.80
2007,06,16,17,02,14.80
2007,06,16,17,03,14.70
2007,06,16,17,04,14.70
2007,06,16,17,05,14.70
2007,06,16,17,06,14.60
2007,06,16,17,07,14.60
2007,06,16,17,08,14.60
2007,06,16,17,09,14.60
2007,06,16,17,10,14.70
2007,06,16,17,11,14.70
2007,06,16,17,12,14.70
2007,06,16,17,13,14.70
2007,06,16,17,14,14.70
2007,06,16,17,15,14.70
2007,06,16,17,16,14.70
2007,06,16,17,17,14.70
2007,06,16,17,18,14.70
2007,06,16,17,19,14.70
2007,06,16,17,20,14.80
2007,06,16,17,21,14.80
2007,06,16,17,22,14.80
2007,06,16,17,23,14.80
2007,06,16,17,24,14.80
2007,06,16,17,25,14.80
2007,06,16,17,26,14.80
2007,06,16,17,27,14.80
2007,06,16,17,28,14.70
2007,06,16,17,29,14.70
2007,06,16,17,30,14.60
2007,06,16,17,31,14.60
2007,06,16,17,32,14.60
2007,06,16,17,33,14.60
2007,06,16,17,34,14.60
2007,06,16,17,35,14.50
2007,06,16,17,36,14.50
2007,06,16,17,37,14.50
2007,06,16,17,38,14.40
2007,06,16,17,39,14.40
2007,06,16,17,40,14.40
2007,06,16,17,41,14.30
2007,06,16,17,42,14.30
2007,06,16,17,43,14.30
2007,06,16,17,44,14.30
2007,06,16,17,45,14.30
2007,06,16,17,46,14.30
2007,06,16,17,47,14.30
2007,06,16,17,48,14.30
2007,06,16,17,49,14.30
2007,06,16,17,50,14.30
2007,06,16,17,51,14.30
2007,06,16,17,52,14.30
2007,06,16,17,53,14.30
2007,06,16,17,54,14.30
2007,06,16,17,55,14.30
2007,06,16,17,56,14.30
2007,06,16,17,57,14.30
2007,06,16,17,58,14.30
2007,06,16,17,59,14.30
2007,06,16,18,00,14.30
2007,06,16,18,01,14.30
2007,06,16,18,02,14.30
2007,06,16,18,03,14.30
2007,06,16,18,04,14.40
2007,06,16,18,05,14.40
2007,06,16,18,06,14.40
2007,06,16,18,07,14.40
2007,06,16,18,08,14.40
2007,06,16,18,09,14.40
2007,06,16,18,10,14.40
2007,06,16,18,11,14.40
2007,06,16,18,12,14.40
2007,06,16,18,13,14.40
2007,06,16,18,14,14.40
2007,06,16,18,15,14.40
2007,06,16,18,16,14.40
2007,06,16,18,17,14.40
2007,06,16,18,18,14.40
2007,06,16,18,19,14.40
2007,06,16,18,20,14.40
2007,06,16,18,21,14.40
2007,06,16,18,22,14.40
2007,06,16,18,23,14.40
2007,06,16,18,24,14.40
2007,06,16,18,25,14.40
2007,06,16,18,26,14.40
2007,06,16,18,27,14.40
2007,06,16,18,28,14.40
2007,06,16,18,29,14.40
2007,06,16,18,30,14.40
2007,06,16,18,31,14.40
2007,06,16,18,32,14.50
2007,06,16,18,33,14.50
2007,06,16,18,34,14.40
2007,06,16,18,35,14.40
2007,06,16,18,36,14.40
2007,06,16,18,37,14.40
2007,06,16,18,38,14.40
2007,06,16,18,39,14.40
2007,06,16,18,40,14.30
2007,06,16,18,41,14.30
2007,06,16,18,42,14.30
2007,06,16,18,43,14.30
2007,06,16,18,44,14.30
2007,06,16,18,45,14.30
2007,06,16,18,46,14.20
2007,06,16,18,47,14.30
2007,06,16,18,48,14.30
2007,06,16,18,49,14.20
2007,06,16,18,50,14.20
2007,06,16,18,51,14.20
2007,06,16,18,52,14.20
2007,06,16,18,53,14.20
2007,06,16,18,54,14.20
2007,06,16,18,55,14.20
2007,06,16,18,56,14.20
2007,06,16,18,57,14.10
2007,06,16,18,58,14.10
2007,06,16,18,59,14.10
2007,06,16,19,00,14.10
2007,06,16,19,01,14.10
2007,06,16,19,02,14.00
2007,06,16,19,03,14.00
2007,06,16,19,04,13.90
2007,06,16,19,05,13.90
2007,06,16,19,06,13.90
2007,06,16,19,07,13.90
2007,06,16,19,08,13.80
2007,06,16,19,09,13.80
2007,06,16,19,10,13.80
2007,06,16,19,11,13.80
2007,06,16,19,12,13.80
2007,06,16,19,13,13.70
2007,06,16,19,14,13.70
2007,06,16,19,15,13.70
2007,06,16,19,16,13.70
2007,06,16,19,17,13.70
2007,06,16,19,18,13.70
2007,06,16,19,19,13.70
2007,06,16,19,20,13.70
2007,06,16,19,21,13.70
2007,06,16,19,22,13.70
2007,06,16,19,23,13.70
2007,06,16,19,24,13.70
2007,06,16,19,25,13.70
2007,06,16,19,26,13.60
2007,06,16,19,27,13.60
2007,06,16,19,28,13.60
2007,06,16,19,29,13.60
2007,06,16,19,30,13.60
2007,06,16,19,31,13.60
2007,06,16,19,32,13.60
2007,06,16,19,33,13.50
2007,06,16,19,34,13.50
2007,06,16,19,35,13.50
2007,06,16,19,36,13.50
2007,06,16,19,37,13.50
2007,06,16,19,38,13.50
2007,06,16,19,39,13.50
2007,06,16,19,40,13.50
2007,06,16,19,41,13.50
2007,06,16,19,42,13.50
2007,06,16,19,43,13.50
2007,06,16,19,44,13.50
2007,06,16,19,45,13.50
2007,06,16,19,46,13.50
2007,06,16,19,47,13.50
2007,06,16,19,48,13.40
2007,06,16,19,49,13.40
2007,06,16,19,50,13.40
2007,06,16,19,51,13.40
2007,06,16,19,52,13.40
2007,06,16,19,53,13.40
2007,06,16,19,54,13.40
2007,06,16,19,55,13.40
2007,06,16,19,56,13.40
2007,06,16,19,57,13.30
2007,06,16,19,58,13.40
2007,06,16,19,59,13.40
2007,06,16,20,00,13.40
2007,06,16,20,01,13.40
2007,06,16,20,02,13.40
2007,06,16,20,03,13.40
2007,06,16,20,04,13.40
2007,06,16,20,05,13.40
2007,06,16,20,06,13.40
2007,06,16,20,07,13.40
2007,06,16,20,08,13.30
2007,06,16,20,09,13.40
2007,06,16,20,10,13.40
2007,06,16,20,11,13.40
2007,06,16,20,12,13.40
2007,06,16,20,13,13.40
2007,06,16,20,14,13.40
2007,06,16,20,15,13.30
2007,06,16,20,16,13.30
2007,06,16,20,17,13.30
2007,06,16,20,18,13.20
2007,06,16,20,19,13.20
2007,06,16,20,20,13.10
2007,06,16,20,21,13.10
2007,06,16,20,22,13.10
2007,06,16,20,23,13.10
2007,06,16,20,24,13.00
2007,06,16,20,25,13.00
2007,06,16,20,26,13.00
2007,06,16,20,27,13.00
2007,06,16,20,28,13.00
2007,06,16,20,29,12.90
2007,06,16,20,30,12.90
2007,06,16,20,31,12.90
2007,06,16,20,32,12.90
2007,06,16,20,33,12.90
2007,06,16,20,34,12.90
2007,06,16,20,35,12.90
2007,06,16,20,36,12.90
2007,06,16,20,37,12.90
2007,06,16,20,38,12.90
2007,06,16,20,39,12.90
2007,06,16,20,40,12.90
2007,06,16,20,41,12.90
2007,06,16,20,42,12.90
2007,06,16,20,43,12.90
2007,06,16,20,44,12.80
2007,06,16,20,45,12.80
2007,06,16,20,46,12.80
2007,06,16,20,47,12.80
2007,06,16,20,48,12.80
2007,06,16,20,49,12.80
2007,06,16,20,50,12.70
2007,06,16,20,51,12.70
2007,06,16,20,52,12.70
2007,06,16,20,53,12.70
2007,06,16,20,54,12.70
2007,06,16,20,55,12.70
2007,06,16,20,56,12.70
2007,06,16,20,57,12.70
2007,06,16,20,58,12.70
2007,06,16,20,59,12.60
2007,06,16,21,00,12.60
2007,06,16,21,01,12.60
2007,06,16,21,02,12.60
2007,06,16,21,03,12.50
2007,06,16,21,04,12.50
2007,06,16,21,05,12.40
2007,06,16,21,06,12.40
2007,06,16,21,07,12.40
2007,06,16,21,08,12.40
2007,06,16,21,09,12.40
2007,06,16,21,10,12.40
2007,06,16,21,11,12.40
2007,06,16,21,12,12.30
2007,06,16,21,13,12.30
2007,06,16,21,14,12.30
2007,06,16,21,15,12.30
2007,06,16,21,16,12.30
2007,06,16,21,17,12.30
2007,06,16,21,18,12.30
2007,06,16,21,19,12.30
2007,06,16,21,20,12.30
2007,06,16,21,21,12.20
2007,06,16,21,22,12.20
2007,06,16,21,23,12.20
2007,06,16,21,24,12.20
2007,06,16,21,25,12.20
2007,06,16,21,26,12.20
2007,06,16,21,27,12.20
2007,06,16,21,28,12.20
2007,06,16,21,29,12.20
2007,06,16,21,30,12.20
2007,06,16,21,31,12.20
2007,06,16,21,32,12.20
2007,06,16,21,33,12.20
2007,06,16,21,34,12.20
2007,06,16,21,35,12.30
2007,06,16,21,36,12.30
2007,06,16,21,37,12.30
2007,06,16,21,38,12.30
2007,06,16,21,39,12.30
2007,06,16,21,40,12.30
2007,06,16,21,41,12.30
2007,06,16,21,42,12.30
2007,06,16,21,43,12.30
2007,06,16,21,44,12.30
2007,06,16,21,45,12.30
2007,06,16,21,46,12.30
2007,06,16,21,47,12.30
2007,06,16,21,48,12.30
2007,06,16,21,49,12.30
2007,06,16,21,50,12.30
2007,06,16,21,51,12.30
2007,06,16,21,52,12.30
2007,06,16,21,53,12.30
2007,06,16,21,54,12.30
2007,06,16,21,55,12.30
2007,06,16,21,56,12.30
2007,06,16,21,57,12.30
2007,06,16,21,58,12.30
2007,06,16,21,59,12.30
2007,06,16,22,00,12.30
2007,06,16,22,01,12.30
2007,06,16,22,02,12.30
2007,06,16,22,03,12.30
2007,06,16,22,04,12.30
2007,06,16,22,05,12.30
2007,06,16,22,06,12.30
2007,06,16,22,07,12.20
2007,06,16,22,08,12.20
2007,06,16,22,09,12.20
2007,06,16,22,10,12.20
2007,06,16,22,11,12.20
2007,06,16,22,12,12.20
2007,06,16,22,13,12.20
2007,06,16,22,14,12.20
2007,06,16,22,15,12.20
2007,06,16,22,16,12.20
2007,06,16,22,17,12.20
2007,06,16,22,18,12.20
2007,06,16,22,19,12.20
2007,06,16,22,20,12.20
2007,06,16,22,21,12.20
2007,06,16,22,22,12.20
2007,06,16,22,23,12.20
2007,06,16,22,24,12.20
2007,06,16,22,25,12.20
2007,06,16,22,26,12.20
2007,06,16,22,27,12.20
2007,06,16,22,28,12.20
2007,06,16,22,29,12.20
2007,06,16,22,30,12.20
2007,06,16,22,31,12.10
2007,06,16,22,32,12.10
2007,06,16,22,33,12.10
2007,06,16,22,34,12.10
2007,06,16,22,35,12.10
2007,06,16,22,36,12.20
2007,06,16,22,37,12.20
2007,06,16,22,38,12.10
2007,06,16,22,39,12.10
2007,06,16,22,40,12.10
2007,06,16,22,41,12.10
2007,06,16,22,42,12.10
2007,06,16,22,43,12.10
2007,06,16,22,44,12.10
2007,06,16,22,45,12.10
2007,06,16,22,46,12.10
2007,06,16,22,47,12.10
2007,06,16,22,48,12.10
2007,06,16,22,49,12.10
2007,06,16,22,50,12.10
2007,06,16,22,51,12.10
2007,06,16,22,52,12.10
2007,06,16,22,53,12.10
2007,06,16,22,54,12.10
2007,06,16,22,55,12.10
2007,06,16,22,56,12.10
2007,06,16,22,57,12.10
2007,06,16,22,58,12.10
2007,06,16,22,59,12.10
2007,06,16,23,00,12.10
2007,06,16,23,01,12.10
2007,06,16,23,02,12.10
2007,06,16,23,03,12.10
2007,06,16,23,04,12.10
2007,06,16,23,05,12.10
2007,06,16,23,06,12.10
2007,06,16,23,07,12.00
2007,06,16,23,08,12.00
2007,06,16,23,09,12.00
2007,06,16,23,10,12.00
2007,06,16,23,11,12.00
2007,06,16,23,12,12.00
2007,06,16,23,13,12.00
2007,06,16,23,14,12.00
2007,06,16,23,15,12.00
2007,06,16,23,16,12.00
2007,06,16,23,17,12.00
2007,06,16,23,18,11.90
2007,06,16,23,19,11.90
2007,06,16,23,20,11.90
2007,06,16,23,21,11.90
2007,06,16,23,22,11.90
2007,06,16,23,23,11.90
2007,06,16,23,24,11.90
2007,06,16,23,25,11.90
2007,06,16,23,26,11.90
2007,06,16,23,27,11.90
2007,06,16,23,28,12.00
2007,06,16,23,29,12.00
2007,06,16,23,30,12.00
2007,06,16,23,31,12.00
2007,06,16,23,32,12.00
2007,06,16,23,33,12.00
2007,06,16,23,34,12.00
2007,06,16,23,35,12.00
2007,06,16,23,36,12.00
2007,06,16,23,37,12.00
2007,06,16,23,38,12.00
2007,06,16,23,39,12.00
2007,06,16,23,40,12.00
2007,06,16,23,41,12.00
2007,06,16,23,42,11.90
2007,06,16,23,43,11.90
2007,06,16,23,44,11.90
2007,06,16,23,45,11.90
2007,06,16,23,46,11.90
2007,06,16,23,47,11.90
2007,06,16,23,48,11.90
2007,06,16,23,49,11.90
2007,06,16,23,50,11.90
2007,06,16,23,51,11.90
2007,06,16,23,52,11.90
2007,06,16,23,53,11.90
2007,06,16,23,54,11.90
2007,06,16,23,55,11.90
2007,06,16,23,56,11.90
2007,06,16,23,57,11.90
2007,06,16,23,58,11.90
2007,06,16,23,59,11.90
